Location: Grand Rapids
(42.9630°N, 85.6680°W)
Time: 14:23:02
(UTC-04:00)

Envisat - Pass Details

Date: 17 April 2024
Orbit: 762 x 764 km, 98.3° (Epoch: 20 May)

Event Time Altitude Azimuth Distance (km) Brightness Sun altitude
Rises 03:33:00 0° 36° (NE) 3,235 7.4 -30.7°
Reaches altitude 10° 03:37:19 10° 71° (ENE) 2,301 6.1 -30.3°
Maximum altitude 03:38:44 11° 88° (E) 2,223 5.8 -30.1°
Drops below altitude 10° 03:40:09 10° 104° (ESE) 2,296 5.7 -30.0°
Enters shadow 03:41:52 - 121° (ESE) 2,568 5.7 -29.8°
